Huntington, WV

8:26 AM EDT on April 25, 2018 (GMT -0400)
Tri-State / Ferguson

Weather History for KHTS - October, 2013

Change the Weather History Date:

Tuesday, October 8, 2013

  Actual Average Record
Temperature  
Mean Temperature 56 °F 59 °F  
Max Temperature 70 °F 71 °F 93 °F (2007)
Min Temperature 41 °F 47 °F 29 °F (2000)
Degree Days  
Heating Degree Days 9 7  
Month to date heating degree days 18 48  
Since 1 July heating degree days 56 106  
Cooling Degree Days 0 1  
Month to date cooling degree days 45 10  
Year to date cooling degree days 1210 1121  
Growing Degree Days 5 (Base 50)    
Moisture  
Dew Point 44 °F    
Average Humidity 69    
Maximum Humidity 100    
Minimum Humidity 37    
Precipitation  
Precipitation 0.00 in 0.09 in 2.26 in (2017)
Month to date precipitation 0.94 0.70  
Year to date precipitation 35.08 33.73  
Snow  
Snow 0.00 in 0.00 in 0.00 in (2016)
Month to date snowfall 0.0 0.0  
Since 1 September snowfall 0.0 0.0  
Snow Depth 0.00 in    
Sea Level Pressure  
Sea Level Pressure 30.22 in    
Wind  
Wind Speed 3 mph (NE)    
Max Wind Speed 15 mph    
Max Gust Speed 21 mph    
Visibility 6 miles    
Events Fog    
T = Trace of Precipitation, MM = Missing Value Source: NWS Daily Summary

Daily Weather History Graph

Daily Weather History Graph

Search for Another Location

Airport or City:

Astronomy

Oct. 08, 2013 Rise Set
Actual Time 7:32 AM EDT 7:02 PM EDT
Civil Twilight 7:06 AM EDT 7:28 PM EDT
Nautical Twilight 6:35 AM EDT 7:59 PM EDT
Astronomical Twilight 6:04 AM EDT 8:29 PM EDT
Moon 11:22 AM EDT (10/8) 9:40 PM EDT (10/8)
Length of Visible Light 12h 22m
Length of Day
11h 29m
Waxing Crescent, 16% of the Moon is Illuminated
Oct 8
Waxing Crescent
Oct 11
First Quarter
Oct 18
Full
Oct 26
Last Quarter
Nov 3
New

Hourly Weather History & Observations

Time (EDT) Temp. Dew Point Humidity Pressure Visibility Wind Dir Wind Speed Gust Speed Precip Events Conditions
12:51 AM 48.0 °F 45.0 °F 89% 30.15 in 10.0 mi Calm Calm - N/A   Clear
2:41 AM 44.6 °F 42.8 °F 93% 30.16 in 2.5 mi Calm Calm - N/A   Clear
2:49 AM 46.4 °F 42.8 °F 87% 30.17 in 10.0 mi Calm Calm - N/A   Clear
4:51 AM 46.0 °F 45.0 °F 96% 30.17 in 0.2 mi Calm Calm - N/A Fog Fog
5:51 AM 43.0 °F 42.1 °F 97% 30.19 in 0.2 mi Calm Calm - N/A Fog Fog
6:49 AM 42.8 °F 39.2 °F 87% 30.21 in 0.5 mi Calm Calm - N/A Fog Fog
7:51 AM 41.0 °F 39.9 °F 96% 30.24 in 0.8 mi Calm Calm - N/A   Mist
7:56 AM 42.8 °F 39.2 °F 87% 30.24 in 1.0 mi Calm Calm - N/A   Mist
7:59 AM 42.8 °F 41.0 °F 93% 30.24 in 2.0 mi Calm Calm - N/A   Partly Cloudy
8:02 AM 42.8 °F 41.0 °F 93% 30.24 in 1.0 mi Calm Calm - N/A   Mist
8:51 AM 46.9 °F 45.0 °F 93% 30.27 in 0.5 mi Calm Calm - N/A Fog Fog
8:53 AM 46.4 °F 44.6 °F 93% 30.26 in 0.2 mi Calm Calm - N/A Fog Fog
9:17 AM 48.2 °F 46.4 °F 93% 30.27 in 2.0 mi Calm Calm - N/A   Mostly Cloudy
9:25 AM 48.2 °F 46.4 °F 93% 30.27 in 2.0 mi NNE 3.5 mph - N/A   Scattered Clouds
9:33 AM 50.0 °F 46.4 °F 87% 30.27 in 5.0 mi Calm Calm - N/A   Partly Cloudy
9:37 AM 50.0 °F 46.4 °F 87% 30.27 in 10.0 mi NNE 3.5 mph - N/A   Clear
10:51 AM 57.9 °F 48.0 °F 70% 30.27 in 10.0 mi East 8.1 mph 16.1 mph N/A   Clear
12:51 PM 62.1 °F 44.1 °F 52% 30.25 in 10.0 mi NE 9.2 mph 20.7 mph N/A   Clear
1:51 PM 66.0 °F 45.0 °F 47% 30.23 in 10.0 mi NE 6.9 mph - N/A   Clear
2:51 PM 66.9 °F 44.1 °F 44% 30.20 in 10.0 mi NE 5.8 mph 16.1 mph N/A   Clear
3:51 PM 69.1 °F 44.1 °F 40% 30.19 in 10.0 mi NNE 8.1 mph - N/A   Clear
4:51 PM 69.1 °F 42.1 °F 38% 30.19 in 10.0 mi NNE 4.6 mph - N/A   Clear
8:51 PM 59.0 °F 42.1 °F 53% 30.21 in 10.0 mi NE 5.8 mph - N/A   Clear
9:51 PM 55.0 °F 43.0 °F 64% 30.21 in 10.0 mi ENE 4.6 mph - N/A   Clear
10:51 PM 54.0 °F 44.1 °F 69% 30.22 in 10.0 mi Calm Calm - N/A   Clear
11:51 PM 48.9 °F 44.1 °F 83% 30.22 in 10.0 mi Calm Calm - N/A   Clear